Theta_e
315 315 316 316 316 316 314 315 318 316 317 315 315 316 316 316 315 312 311 311 310 309 308 308 309 308 308 308 309 309 309 309 309 309 310 311 311 312 313 313 313 312 313 313
318 316 316 317 315 314 315 316 315 315 316 315 315 314 313 310 311 311 310 310 309 309 308 307 307 308 308 308 308 307 307 307 307 308 308 308 309 310 310 310 309 309 309 309
316 315 314 315 313 313 315 319 319 321 319 316 316 314 311 310 309 309 309 309 308 307 306 306 306 307 307 308 307 307 307 307 307 307 307 307 307 308 308 308 308 308 308 308
315 312 317 312 315 319 321 321 319 319 318 317 316 314 313 309 309 308 307 307 306 304 304 305 305 305 306 306 306 305 305 306 306 306 306 306 306 306 307 307 307 307 307 307
313 310 313 313 320 319 317 319 318 318 316 313 311 309 310 309 307 306 305 303 303 304 305 304 304 305 305 304 303 303 303 303 303 303 302 302 304 306 306 306 306 306 306 306
316 317 316 318 320 317 317 317 317 315 313 311 310 311 309 308 306 305 303 304 304 304 304 304 304 304 304 302 302 302 301 301 301 300 301 303 304 306 306 305 305 305 305 305
318 318 316 316 316 317 316 315 315 314 310 309 311 308 306 304 304 304 304 304 304 304 303 303 303 303 301 301 301 299 299 299 298 299 298 298 299 301 305 306 305 305 305 305
317 319 319 315 315 316 313 313 313 310 309 309 306 305 305 304 304 303 301 302 302 302 302 302 302 301 300 299 298 297 297 296 296 296 297 298 299 302 303 304 305 304 304 305
316 317 315 315 313 313 311 311 311 309 309 307 305 305 304 304 303 301 300 301 302 301 301 300 299 298 297 297 296 295 295 295 295 295 296 296 297 299 302 303 303 303 303 304
315 315 315 313 312 311 310 310 310 308 307 306 305 304 304 303 300 301 301 301 300 299 298 298 296 295 295 294 293 292 293 293 293 294 294 295 296 297 298 299 300 301 303 306
311 311 311 312 311 310 310 310 308 307 307 305 304 303 302 301 301 300 300 300 298 297 297 296 294 293 292 292 291 291 292 292 293 293 294 294 295 296 298 300 301 303 304 305
309 310 309 309 309 309 309 309 307 306 305 303 304 302 302 300 299 299 299 297 296 296 294 293 292 291 291 291 290 290 291 291 292 292 293 294 295 295 296 296 297 299 300 303
309 309 309 309 308 309 309 306 305 304 303 303 303 302 300 299 298 298 296 296 295 294 292 291 291 290 290 290 290 290 290 290 291 291 292 293 294 295 296 296 297 297 298 301
309 310 308 308 307 306 305 305 304 303 303 303 303 300 299 297 297 296 295 294 293 292 291 290 289 289 289 289 288 288 288 289 290 290 291 292 293 294 296 296 296 297 297 297
310 308 307 306 305 304 305 303 303 302 302 301 301 299 298 297 295 295 294 292 292 290 290 289 289 288 287 287 287 288 289 290 290 291 291 292 292 293 294 295 296 296 297 298
308 304 304 304 304 304 303 302 302 301 301 301 300 297 297 296 295 293 292 291 290 289 288 288 287 286 285 286 288 289 290 291 292 292 293 293 293 293 294 295 295 296 297 298
305 303 303 304 303 303 303 302 302 302 302 299 298 297 296 295 293 292 291 290 288 288 287 286 285 284 286 287 287 288 290 292 294 294 295 295 294 294 294 295 295 296 297 298
302 302 302 302 303 302 301 302 301 301 300 299 298 296 295 293 292 291 290 288 287 286 285 284 284 286 285 286 287 289 291 296 305 302 301 300 297 297 296 295 295 295 296 296
302 304 303 303 302 301 301 301 301 300 299 298 296 294 294 292 291 290 288 287 286 285 284 283 284 284 284 285 287 290 297 303 306 308 309 308 304 301 301 297 296 296 296 298
301 302 302 302 302 302 301 301 299 298 298 296 294 294 293 292 291 289 287 286 285 284 283 283 284 283 283 286 288 292 296 299 303 304 305 307 307 302 299 298 298 298 298 299
302 302 302 302 301 302 298 298 297 297 297 294 294 294 293 291 290 289 287 285 284 283 283 283 283 282 284 286 289 292 293 295 297 299 300 302 304 307 302 302 301 300 301 300
301 303 302 302 301 300 298 298 296 296 295 293 293 293 291 290 289 287 286 285 284 283 282 282 282 282 284 286 288 289 291 292 293 294 295 297 299 301 305 305 304 303 302 302
301 303 301 301 300 300 298 297 295 295 295 293 292 292 290 289 288 287 286 285 283 282 282 282 281 282 283 285 286 287 288 289 290 291 292 293 294 296 297 300 306 305 305 305
302 301 300 300 299 298 297 296 295 294 293 292 291 291 289 288 287 286 285 285 283 282 282 281 281 281 282 283 284 285 286 286 288 289 289 290 291 292 293 295 299 303 307 309
301 300 300 299 298 297 297 296 294 293 292 291 291 291 289 288 287 286 285 284 283 282 281 281 281 281 281 282 283 283 284 284 285 286 287 288 289 289 290 292 294 298 303 306
298 297 298 298 298 297 296 295 293 292 291 291 290 290 289 287 286 285 284 284 283 283 282 281 280 280 280 281 281 282 282 283 284 285 285 286 287 287 288 290 293 295 298 302
297 298 298 298 298 296 296 295 293 292 291 290 290 290 289 287 286 285 284 283 283 282 282 281 280 280 280 280 281 281 281 282 282 283 284 284 285 286 287 288 290 293 295 297
Wind_Speed
4 6 5 8 12 13 9 9 10 11 16 16 8 2 3 1 5 8 6 7 6 4 4 7 12 20 23 20 18 19 21 23 24 25 25 24 23 22 22 19 16 14 15 17
4 8 10 13 14 13 15 13 13 14 13 4 2 1 5 7 6 6 5 5 5 5 6 8 14 19 23 19 19 21 24 26 28 29 30 30 28 24 23 22 21 19 20 18
4 4 7 7 6 7 6 2 3 2 1 3 5 6 4 3 4 5 7 6 7 7 8 15 20 24 25 23 24 22 25 27 25 26 27 28 31 33 32 25 21 22 21 22
3 4 2 5 6 2 8 3 2 4 1 2 3 4 6 1 0 6 7 6 7 7 13 21 27 28 26 18 18 20 20 20 22 24 26 28 31 33 31 32 31 29 26 24
3 3 6 7 3 3 1 4 3 2 3 3 6 6 5 3 4 6 5 6 10 17 24 26 24 18 17 25 26 24 26 29 32 34 37 40 39 33 27 28 31 27 24 24
3 4 5 2 2 2 2 3 3 3 3 6 5 3 4 5 5 6 10 15 18 24 20 14 26 26 26 23 26 31 33 34 32 33 33 30 29 27 30 30 28 25 22 23
6 5 5 3 4 1 3 5 3 6 6 4 2 5 7 6 6 8 13 16 21 16 20 21 23 23 24 29 29 36 36 28 34 30 33 37 37 35 26 21 19 19 22 24
2 3 6 3 2 3 5 3 6 5 4 4 5 7 7 8 9 9 9 15 21 16 19 26 29 26 28 32 34 33 35 33 32 30 29 29 29 25 24 26 23 19 21 22
4 3 5 8 6 2 3 4 4 4 4 3 5 5 8 8 7 6 11 13 18 23 28 30 26 27 31 34 34 34 33 31 30 29 28 26 26 25 22 23 20 18 19 21
1 3 7 6 3 3 3 5 6 3 1 3 5 7 9 7 7 9 8 16 25 26 26 26 29 32 30 31 33 32 31 29 28 27 26 26 25 24 24 24 21 21 21 19
4 5 5 6 4 6 7 7 3 3 3 5 6 7 8 6 7 7 15 23 26 25 23 29 32 32 31 30 30 29 29 27 26 24 24 23 25 24 23 26 24 19 20 19
5 6 5 6 7 8 6 1 3 4 6 6 5 9 6 6 8 13 19 25 24 25 28 32 31 32 31 28 27 28 27 24 22 22 22 21 22 22 26 32 30 29 29 25
6 6 7 9 9 5 2 6 5 4 5 7 7 6 5 6 12 24 23 24 25 26 30 31 29 31 30 29 28 26 26 27 25 24 22 21 20 19 11 19 25 30 32 29
2 2 4 5 4 6 6 2 3 5 7 8 10 7 9 12 19 19 21 26 28 31 30 28 28 29 30 30 31 30 29 29 27 25 22 21 20 20 19 14 9 16 23 30
4 2 4 2 5 6 3 3 5 7 8 7 4 9 14 12 12 20 26 28 27 27 27 28 28 30 31 33 31 30 28 26 24 23 21 21 20 20 19 18 17 16 16 18
2 5 6 6 6 6 5 7 6 7 7 5 6 12 16 18 20 24 26 26 22 17 29 28 28 33 36 34 33 30 27 27 25 23 21 18 19 18 17 17 16 15 15 15
5 5 5 4 6 5 5 6 6 7 8 5 9 17 18 20 22 24 27 26 26 25 26 26 32 36 36 33 30 28 28 29 25 21 18 18 17 17 17 16 14 14 16 15
4 6 7 5 2 4 6 7 10 11 4 12 15 15 18 16 16 23 27 29 26 23 23 29 33 37 34 33 30 30 26 25 23 15 16 12 13 15 15 14 13 12 13 18
10 10 6 4 5 5 6 8 11 11 15 14 14 14 17 21 24 24 28 25 21 21 29 36 35 34 32 35 32 28 23 22 20 19 17 7 5 8 1 10 10 11 12 14
8 7 9 9 12 10 9 12 14 14 17 14 17 15 17 23 25 23 24 20 21 26 35 34 33 30 33 33 34 24 23 22 20 19 19 17 7 5 6 6 7 8 9 11
5 5 5 7 9 13 12 14 16 15 14 17 17 16 18 24 23 22 18 11 29 33 33 29 29 32 31 33 27 24 23 22 20 20 20 19 19 11 6 6 6 7 7 10
3 2 5 9 9 9 15 14 18 17 11 19 20 17 23 22 23 23 19 23 30 34 30 28 31 36 35 29 24 23 23 22 20 21 21 21 19 17 14 8 7 7 7 8
6 3 10 9 8 8 13 13 19 19 11 21 21 17 24 22 21 20 12 32 31 34 28 30 35 37 33 25 25 24 24 23 22 21 21 21 20 19 17 16 8 6 3 4
6 7 9 9 12 12 6 13 19 20 19 20 23 18 25 24 23 28 27 28 33 33 29 33 35 35 29 26 26 25 24 24 24 23 23 23 22 22 22 21 18 15 13 9
10 12 10 11 10 7 12 12 17 18 20 18 22 20 26 24 23 27 29 30 31 32 30 33 35 33 29 28 28 27 26 26 26 24 24 23 24 22 23 22 21 19 17 16
11 12 12 14 11 13 13 12 14 17 18 18 20 21 22 23 26 28 29 31 31 31 32 32 34 34 31 30 28 28 27 28 28 27 26 25 24 25 25 24 22 20 17 13
13 16 14 15 13 14 17 13 16 16 19 19 17 21 21 22 26 27 29 30 31 32 32 34 34 34 33 31 30 30 30 30 31 29 28 27 26 25 26 23 22 20 18 16
Wind_Direction
252 273 294 287 273 274 252 232 230 265 258 271 287 317 0 297 341 59 50 27 25 359 335 324 334 331 326 319 317 315 310 307 305 306 308 300 292 289 280 276 276 279 286 292
258 245 258 275 281 277 265 261 259 262 266 333 225 40 27 23 53 35 13 346 322 290 280 295 306 303 304 291 290 295 292 291 293 293 294 289 287 286 280 279 280 282 281 288
262 346 321 283 239 257 234 136 213 220 213 309 2 348 348 76 41 353 328 300 287 299 303 303 304 304 292 287 292 289 285 283 280 279 280 281 281 277 269 269 268 272 277 282
260 17 255 239 319 248 129 133 332 120 356 216 239 267 259 165 190 277 285 320 313 298 305 311 309 306 301 291 295 296 293 290 288 285 282 281 279 272 263 263 263 261 265 270
184 208 290 308 16 1 132 224 215 215 235 279 305 323 301 327 351 345 332 284 270 296 304 306 312 308 305 306 305 301 295 292 288 284 285 281 272 264 259 258 256 255 260 267
171 205 231 179 305 235 197 255 263 306 303 279 320 310 236 298 284 272 281 294 299 307 310 310 309 302 295 291 293 292 294 289 287 288 275 276 279 279 269 249 245 252 249 258
220 233 271 229 278 188 108 219 250 278 264 299 278 227 283 298 296 282 290 302 317 309 297 299 306 296 291 295 291 299 294 296 294 283 290 286 279 275 277 258 239 247 254 259
252 225 256 242 313 193 222 232 238 266 278 285 281 294 296 299 294 302 310 315 313 309 307 307 302 299 301 296 298 299 294 290 288 283 280 286 284 275 262 259 253 247 254 258
208 258 318 321 236 293 199 219 263 285 275 299 297 280 288 292 299 297 299 316 323 310 302 305 305 307 301 297 301 298 294 289 286 284 280 279 282 284 271 254 251 249 253 254
56 242 251 227 286 312 295 291 276 270 282 304 290 297 296 290 297 311 328 314 314 310 306 305 313 305 295 297 298 295 290 289 286 280 277 274 272 264 257 257 254 252 249 240
256 274 304 232 259 264 269 274 312 356 308 314 307 300 285 294 317 319 314 314 314 308 305 308 308 304 302 300 298 293 290 287 283 279 274 271 267 261 261 251 243 243 238 236
241 215 195 248 265 263 260 9 21 358 341 319 284 294 304 318 308 313 313 314 310 309 312 307 306 306 304 302 295 290 289 288 283 277 275 267 263 264 258 261 266 261 266 263
236 223 211 253 260 268 120 50 35 0 314 306 302 319 333 318 318 317 313 311 311 314 311 308 306 306 308 307 302 294 293 292 289 283 278 267 262 254 258 255 255 254 252 252
247 240 296 273 290 70 90 61 327 295 314 313 319 338 326 314 317 316 315 315 316 313 309 308 309 308 310 309 308 302 295 289 283 278 269 265 258 257 252 244 248 240 246 247
313 280 252 314 56 47 61 352 3 339 318 322 352 335 325 318 318 319 320 320 314 312 312 317 316 315 319 317 311 303 298 292 284 276 268 260 257 255 250 244 242 235 238 239
3 21 21 29 54 38 27 357 339 316 321 326 333 327 318 318 320 321 324 325 323 323 320 320 319 320 321 319 314 310 305 294 285 274 265 254 246 245 242 239 235 234 226 228
55 354 353 49 33 16 346 312 311 315 326 339 312 316 327 331 327 328 328 330 326 318 318 322 322 322 323 321 317 312 308 302 297 280 263 250 241 237 234 230 226 223 220 222
52 72 84 87 77 341 340 331 323 334 334 320 324 334 335 338 332 330 330 331 329 328 329 329 327 327 326 323 322 318 309 305 312 286 280 264 248 248 228 220 216 207 210 210
70 85 82 53 1 357 339 330 346 349 339 344 356 339 340 336 335 333 336 335 336 335 336 334 334 333 330 331 333 327 325 331 343 349 353 14 18 0 87 180 193 200 204 190
69 68 39 18 7 353 346 20 357 350 352 13 348 341 346 344 339 340 343 341 343 334 333 334 337 336 336 338 342 341 343 344 351 355 358 0 4 64 89 140 163 176 188 187
84 48 6 342 354 38 54 25 6 352 8 5 353 346 351 343 344 343 345 347 345 343 341 342 345 343 343 345 347 351 353 355 358 359 1 0 2 23 97 104 118 138 160 169
2 59 350 30 64 71 35 33 13 8 33 8 2 0 356 354 354 355 354 354 345 347 347 349 350 351 353 356 356 360 2 4 4 5 5 3 6 8 21 63 91 121 149 168
11 39 55 74 62 82 36 42 25 13 25 17 6 12 7 0 357 357 353 353 355 353 356 356 355 3 1 3 6 7 7 8 8 8 5 2 7 10 13 22 55 85 111 171
65 70 69 69 68 65 32 44 33 25 20 20 12 21 14 6 5 5 357 355 360 1 1 0 2 5 7 9 11 11 11 10 10 9 10 11 12 14 21 26 38 46 48 56
96 67 65 54 72 67 40 51 39 31 23 21 14 17 18 16 11 359 0 3 4 7 7 5 8 8 11 13 14 13 13 12 12 13 14 14 13 15 21 28 38 41 44 54
82 69 64 50 100 78 55 60 51 40 27 20 18 14 17 17 15 12 10 9 9 11 12 10 10 11 12 13 15 16 16 15 16 16 17 18 19 21 22 29 38 39 39 42
86 78 76 54 77 83 65 72 68 51 39 28 23 17 19 18 18 18 16 15 14 13 14 14 14 14 14 14 17 19 20 20 21 20 19 21 22 25 26 31 37 42 48 50